Dalaman, Turkey

7:39 PM +03 on September 25, 2017 (GMT +0300)
Dalaman

Weather History for LTBS - November, 2011

Change the Weather History Date:

Saturday, November 26, 2011

  Actual Average Record
Temperature  
Mean Temperature 54 °F -  
Max Temperature 64 °F 61 °F 71 °F (2008)
Min Temperature 43 °F 45 °F 37 °F (2001)
Degree Days  
Heating Degree Days 12    
Growing Degree Days 4 (Base 50)    
Moisture  
Dew Point 40 °F    
Average Humidity 66    
Maximum Humidity 87    
Minimum Humidity 31    
Precipitation  
Precipitation 0.00 in - - ()
Sea Level Pressure  
Sea Level Pressure 30.14 in    
Wind  
Wind Speed 5 mph ()    
Max Wind Speed 8 mph    
Max Gust Speed -    
Visibility 6.2 miles    
Events      
Averages and records for this station are not official NWS values.
T = Trace of Precipitation, MM = Missing Value Source: Averaged Metar Reports

Daily Weather History Graph

Daily Weather History Graph

Search for Another Location

Airport or City:

Trip Planner

Search our weather history database for the weather conditions in past years. The results will help you decide how hot, cold, wet, or windy it might be!

Date:

Astronomy

Nov. 26, 2011 Rise Set
Actual Time 6:53 AM EET 4:50 PM EET
Civil Twilight 6:25 AM EET 5:18 PM EET
Nautical Twilight 5:53 AM EET 5:50 PM EET
Astronomical Twilight 5:22 AM EET 6:21 PM EET
Moon 8:02 AM EET (11/26) 6:01 PM EET (11/26)
Length of Visible Light 10h 53m
Length of Day
9h 57m
New Moon, 2% of the Moon is Illuminated
Nov 26
New Moon
Dec 2
First Quarter
Dec 10
Full
Dec 18
Last Quarter
Dec 24
New

Hourly Weather History & Observations

Time (EET) Temp. Windchill Dew Point Humidity Pressure Visibility Wind Dir Wind Speed Gust Speed Precip Events Conditions
12:20 AM 44.6 °F 41.4 °F 39.2 °F 81% 30.18 in - ENE 5.8 mph - N/A   Clear
12:50 AM 46.4 °F 42.4 °F 39.2 °F 76% 30.18 in - NNE 8.1 mph - N/A   Clear
1:20 AM 44.6 °F 42.2 °F 39.2 °F 81% 30.18 in - NE 4.6 mph - N/A   Clear
1:50 AM 46.4 °F 44.3 °F 39.2 °F 76% 30.18 in - ENE 4.6 mph - N/A   Clear
2:00 AM 46 °F - 38 °F 66% 30.19 in 6 mi ENE 4.6 mph - -  
2:20 AM 46.4 °F 42.9 °F 39.2 °F 76% 30.15 in - NE 6.9 mph - N/A   Clear
2:50 AM 46.4 °F 42.4 °F 39.2 °F 76% 30.15 in - ENE 8.1 mph - N/A   Clear
3:20 AM 46.4 °F 43.5 °F 37.4 °F 71% 30.15 in - ENE 5.8 mph - N/A   Clear
3:50 AM 44.6 °F 40.2 °F 39.2 °F 81% 30.15 in - NNE 8.1 mph - N/A   Clear
4:20 AM 46.4 °F - 37.4 °F 71% 30.15 in 6.2 mi Variable 2.3 mph - N/A   Partly Cloudy
4:50 AM 46.4 °F 43.5 °F 37.4 °F 71% 30.15 in 6.2 mi NE 5.8 mph - N/A   Scattered Clouds
5:20 AM 46.4 °F 42.9 °F 35.6 °F 66% 30.15 in 6.2 mi NE 6.9 mph - N/A   Scattered Clouds
5:50 AM 44.6 °F 40.7 °F 35.6 °F 71% 30.15 in 6.2 mi ENE 6.9 mph - N/A   Scattered Clouds
6:20 AM 44.6 °F 40.7 °F 35.6 °F 71% 30.15 in 6.2 mi NE 6.9 mph - N/A   Scattered Clouds
6:50 AM 44.6 °F 40.7 °F 35.6 °F 71% 30.15 in 6.2 mi NE 6.9 mph - N/A   Scattered Clouds
7:20 AM 42.8 °F 38.6 °F 35.6 °F 76% 30.18 in 6.2 mi NE 6.9 mph - N/A   Scattered Clouds
7:50 AM 44.6 °F 41.4 °F 35.6 °F 71% 30.18 in 6.2 mi ENE 5.8 mph - N/A   Scattered Clouds
8:00 AM 44 °F - 35 °F 62% 30.19 in 6 mi ENE 5.8 mph - -   Scattered Clouds
8:20 AM 46.4 °F 43.5 °F 37.4 °F 71% 30.18 in 6.2 mi ENE 5.8 mph - N/A   Scattered Clouds
8:50 AM 51.8 °F - 37.4 °F 58% 30.18 in 6.2 mi NE 6.9 mph - N/A   Scattered Clouds
9:20 AM 51.8 °F - 37.4 °F 58% 30.18 in 6.2 mi ENE 6.9 mph - N/A   Scattered Clouds
9:50 AM 53.6 °F - 35.6 °F 51% 30.18 in 6.2 mi NE 6.9 mph - N/A   Scattered Clouds
10:20 AM 57.2 °F - 39.2 °F 51% 30.18 in 6.2 mi NNE 6.9 mph - N/A   Scattered Clouds
10:50 AM 59.0 °F - 37.4 °F 45% 30.18 in 6.2 mi NNE 5.8 mph - N/A   Scattered Clouds
11:20 AM 59.0 °F - 35.6 °F 42% 30.15 in 6.2 mi NNE 6.9 mph - N/A   Scattered Clouds
11:50 AM 59.0 °F - 37.4 °F 45% 30.15 in 6.2 mi North 6.9 mph - N/A   Scattered Clouds
12:20 PM 60.8 °F - 37.4 °F 42% 30.15 in 6.2 mi North 5.8 mph - N/A   Scattered Clouds
12:50 PM 62.6 °F - 39.2 °F 42% 30.12 in 6.2 mi North 5.8 mph - N/A   Scattered Clouds
1:20 PM 62.6 °F - 39.2 °F 42% 30.12 in 6.2 mi WNW 3.5 mph - N/A   Scattered Clouds
1:50 PM 62.6 °F - 39.2 °F 42% 30.12 in 6.2 mi Variable 1.2 mph - N/A   Scattered Clouds
2:00 PM 63 °F - 40 °F 31% 30.14 in 6 mi WNW 1.2 mph - -   Scattered Clouds
2:20 PM 64.4 °F - 41.0 °F 42% 30.12 in 6.2 mi Variable 2.3 mph - N/A   Scattered Clouds
2:50 PM 64.4 °F - 41.0 °F 42% 30.12 in 6.2 mi Variable 2.3 mph - N/A   Scattered Clouds
3:20 PM 62.6 °F - 46.4 °F 55% 30.12 in 6.2 mi West 6.9 mph - N/A   Scattered Clouds
3:50 PM 62.6 °F - 44.6 °F 52% 30.12 in 6.2 mi NNW 5.8 mph - N/A   Scattered Clouds
4:20 PM 60.8 °F - 44.6 °F 55% 30.12 in 6.2 mi NW 4.6 mph - N/A   Scattered Clouds
4:50 PM 59.0 °F - 44.6 °F 59% 30.12 in 6.2 mi WNW 4.6 mph - N/A   Scattered Clouds
5:20 PM 57.2 °F - 44.6 °F 63% 30.12 in 6.2 mi WNW 3.5 mph - N/A   Scattered Clouds
5:50 PM 53.6 °F - 44.6 °F 72% 30.09 in - East 4.6 mph - N/A   Clear
6:20 PM 50.0 °F - 44.6 °F 82% 30.09 in - East 3.5 mph - N/A   Clear
6:50 PM 48.2 °F - 42.8 °F 82% 30.12 in - North 5.8 mph - N/A   Clear
7:20 PM 48.2 °F - 42.8 °F 82% 30.12 in - ENE 4.6 mph - N/A   Clear
7:50 PM 48.2 °F - 42.8 °F 82% 30.12 in - NE 4.6 mph - N/A   Clear
8:00 PM 49 °F - 42 °F 71% 30.13 in 6 mi NE 4.6 mph - -  
8:20 PM 48.2 °F - 42.8 °F 82% 30.12 in - NNE 5.8 mph - N/A   Clear
8:50 PM 48.2 °F - 42.8 °F 82% 30.12 in - NNE 5.8 mph - N/A   Clear
9:20 PM 46.4 °F 44.3 °F 41.0 °F 81% 30.12 in - ENE 4.6 mph - N/A   Clear
9:50 PM 46.4 °F 44.3 °F 41.0 °F 81% 30.12 in - NE 4.6 mph - N/A   Clear
10:20 PM 44.6 °F 41.4 °F 41.0 °F 87% 30.12 in - NE 5.8 mph - N/A   Clear
10:50 PM 44.6 °F 43.1 °F 41.0 °F 87% 30.12 in - NNE 3.5 mph - N/A   Clear
11:20 PM 48.2 °F - 42.8 °F 82% 30.12 in - NNE 3.5 mph - N/A   Clear
11:50 PM 48.2 °F - 41.0 °F 76% 30.12 in - Variable 2.3 mph - N/A   Clear